This demonstration page uses our WeatherBlox Daily Observations layout. Learn more.

Left ArrowRight Arrow

53.62937, 11.41316

Hourly Observations for April 2, 2022

Temp ( °F °C ) Dew Point ( °F °C ) Humidity (%) Winds ( mph kmh ) Pressure ( in mb ) Visibility ( mi km ) Precip ( " mm )
12:20 am 00:20 Mostly Clear 36 2 23 -5 60 60 NE 9 15 29.98 1015 30 48 N/A
12:50 am 00:50 Partly Cloudy 36 2 23 -5 60 60 NE 8 13 29.98 1015 30 48 N/A
1:20 am 01:20 Partly Cloudy 36 2 23 -5 60 60 NE 7 11 29.98 1015 30 48 N/A
1:50 am 01:50 Mostly Clear 36 2 25 -4 65 65 NE 7 11 29.98 1015 30 48 N/A
2:20 am 02:20 Mostly Clear 34 1 25 -4 70 70 NE 6 9 29.98 1015 30 48 N/A
2:50 am 02:50 Partly Cloudy 34 1 25 -4 70 70 NE 6 9 29.98 1015 30 48 N/A
3:20 am 03:20 Mostly Clear 34 1 25 -4 70 70 NE 7 11 29.98 1015 30 48 N/A
3:50 am 03:50 Mostly Clear 36 2 23 -5 60 60 NE 10 17 29.98 1015 30 48 N/A
4:20 am 04:20 Mostly Cloudy 36 2 23 -5 60 60 NE 13 20 29.98 1015 30 48 N/A
4:50 am 04:50 Mostly Clear 36 2 21 -6 56 56 NE 14 22 29.98 1015 30 48 N/A
5:20 am 05:20 Mostly Clear 36 2 21 -6 56 56 NE 13 20 29.98 1015 30 48 N/A
5:50 am 05:50 Mostly Clear 36 2 21 -6 56 56 NE 13 20 29.98 1015 30 48 N/A
6:20 am 06:20 Mostly Clear 34 1 23 -5 65 65 NE 12 19 29.98 1015 30 48 N/A
6:50 am 06:50 Mostly Sunny 34 1 23 -5 65 65 NE 10 17 30.01 1016 30 48 N/A
7:20 am 07:20 Mostly Sunny 34 1 23 -5 65 65 NNE 7 11 30.01 1016 30 48 N/A
7:50 am 07:50 Mostly Sunny 34 1 25 -4 70 70 N 6 9 30.01 1016 30 48 N/A
8:20 am 08:20 Mostly Sunny 36 2 25 -4 65 65 NNE 6 9 30.03 1017 30 48 N/A
8:50 am 08:50 Mostly Sunny 37 3 25 -4 60 60 NE 12 19 30.03 1017 30 48 N/A
9:20 am 09:20 Mostly Cloudy 37 3 25 -4 60 60 NE 15 24 30.03 1017 30 48 N/A
9:50 am 09:50 Partly Cloudy 39 4 25 -4 56 56 NE 15 24 30.03 1017 30 48 N/A
10:20 am 10:20 Partly Cloudy 39 4 25 -4 56 56 NNE 16 26 30.03 1017 30 48 N/A
10:50 am 10:50 Partly Cloudy 37 3 23 -5 56 56 NE 16 26 30.06 1018 30 48 N/A
11:20 am 11:20 Mostly Sunny 39 4 23 -5 52 52 NNE 17 28 30.06 1018 30 48 N/A
11:50 am 11:50 Mostly Sunny 39 4 23 -5 52 52 NNE 16 26 30.06 1018 30 48 N/A
12:20 pm 12:20 Mostly Sunny 41 5 25 -4 53 53 NNE 16 26 30.06 1018 30 48 N/A
12:50 pm 12:50 Mostly Sunny 41 5 21 -6 45 45 NE 18 30 30.06 1018 30 48 N/A
1:20 pm 13:20 Mostly Sunny 41 5 21 -6 45 45 NNE 16 26 30.06 1018 30 48 N/A
1:50 pm 13:50 Mostly Sunny 41 5 19 -7 42 42 NNE 17 28 30.06 1018 7 11 N/A
2:20 pm 14:20 Mostly Sunny 41 5 19 -7 42 42 NE 16 26 30.06 1018 7 11 N/A
2:50 pm 14:50 Mostly Sunny 41 5 16 -9 36 36 NE 17 28 30.06 1018 7 11 N/A
3:20 pm 15:20 Mostly Sunny 41 5 18 -8 39 39 NE 17 28 30.06 1018 7 11 N/A
3:50 pm 15:50 Mostly Sunny 41 5 14 -10 33 33 NE 17 28 30.06 1018 7 11 N/A
4:20 pm 16:20 Mostly Sunny 41 5 10 -12 28 28 NE 16 26 30.06 1018 7 11 N/A
4:50 pm 16:50 Mostly Sunny 41 5 18 -8 39 39 NE 15 24 30.06 1018 7 11 N/A
5:20 pm 17:20 Mostly Sunny 41 5 18 -8 39 39 NE 14 22 30.06 1018 7 11 N/A
5:50 pm 17:50 Mostly Sunny 39 4 18 -8 42 42 NE 13 20 30.06 1018 7 11 N/A
6:20 pm 18:20 Mostly Sunny 39 4 18 -8 42 42 NE 10 17 30.06 1018 7 11 N/A
6:50 pm 18:50 Mostly Sunny 39 4 18 -8 42 42 NE 7 11 30.06 1018 7 11 N/A
7:20 pm 19:20 Partly Cloudy with Showers Nearby 39 4 19 -7 45 45 N 5 7 30.09 1019 30 48 N/A
7:50 pm 19:50 Partly Cloudy with Showers Nearby 37 3 19 -7 48 48 NNE 8 13 30.09 1019 30 48 N/A
8:20 pm 20:20 Partly Cloudy with Showers Nearby 37 3 19 -7 48 48 NNE 7 11 30.09 1019 30 48 N/A
8:50 pm 20:50 Mostly Clear 36 2 19 -7 52 52 NNE 3 6 30.09 1019 30 48 N/A
9:20 pm 21:20 Mostly Clear 34 1 21 -6 60 60 VRB 2 4 30.12 1020 30 48 N/A
9:50 pm 21:50 Partly Cloudy 32 0 21 -6 64 64 VRB 1 2 30.12 1020 30 48 N/A
10:20 pm 22:20 Mostly Clear 30 -1 21 -6 69 69 VRB 2 4 30.12 1020 30 48 N/A
10:50 pm 22:50 Mostly Clear 32 0 19 -7 60 60 WSW 3 6 30.12 1020 30 48 N/A
11:20 pm 23:20 Mostly Clear 30 -1 19 -7 64 64 WSW 3 6 30.12 1020 30 48 N/A
11:50 pm 23:50 Mostly Clear 30 -1 19 -7 64 64 W 3 6 30.12 1020 30 48 N/A

Powered by AerisWeather